Regional Weather Roundup
Issued by NWS

Home | Current Version | Previous Version | Graphics & Text | Print | Product List | Glossary On
Versions: 1 2 3 4 5 6 7 8 9 10 11 12 13 14 15 16 17 18 19 20 21 22 23 24 25 26 27 28 29 30 31 32 33 34 35 36 37 38 39 40 41 42 43 44 45 46 47 48 49 50
164
ASUS44 KLIX 280205
RWRLA
LOUISIANA WEATHER ROUNDUP
NATIONAL WEATHER SERVICE NEW ORLEANS LA
900 PM CDT SUN JUL 27 2014

NOTE: "FAIR" INDICATES FEW OR NO CLOUDS BELOW 12,000 FEET WITH NO
      SIGNIFICANT WEATHER AND/OR OBSTRUCTIONS TO VISIBILITY.
      SKY/WX - SKY CONDITION AND SIGNIFICANT WEATHER.
      TMP - AIR TEMPERATURE.    DP   - DEWPOINT TEMPERATURE.
      RH  - RELATIVE HUMIDITY.  PRES - PRESSURE.
      HX  - HEAT INDEX.         WCI  - WIND CHILL INDEX.

*  THESE STATIONS ARE NOT NWS OR FAA STATIONS AND ARE NOT UNDER
   NWS QUALITY CONTROL.

LAZ040-048-061>063-065-066-069-280300-
SOUTHEAST LOUISIANA

CITY           SKY/WX    TMP DP  RH WIND       PRES   REMARKS
N.O. AUDUBON     N/A     84  76  76 MISG        N/A
N.O. INTL ARPT MOCLDY    83  74  74 W9        30.03R
N.O. LAKEFRONT PTCLDY    86  74  67 W15       30.03S
N.O. DOWNTOWN* FAIR      86  72  62 SW7       30.04S
SLIDELL        CLEAR     86  75  69 SW5       30.02R HX  95
BATON ROUGE    PTCLDY    85  76  74 SW8       30.03R
BOOTHVILLE     PTCLDY    85  77  77 SW12      30.05S HX  95
BELLE CHASSE   CLEAR     83  75  77 SW3       30.03S
BOGALUSA*      FAIR      84  77  80 CALM      30.04R
GALLIANO*      NOT AVBL
NEW ROADS*     FAIR      83  77  81 S7        30.02S
GONZALES*      FAIR      83  79  88 S3        30.03S
HAMMOND*       CLEAR     86  72  62 SW5       30.05R
HOUMA*         PTCLDY    83  74  76 W3        30.05R
PORT FOURCHON* CLEAR     86  75  70 SW9       30.07S HX  95

$$

LAZ041-044-053-054-280300-
SOUTHWEST LOUISIANA

CITY           SKY/WX    TMP DP  RH WIND       PRES   REMARKS
LAKE CHARLES   CLEAR     83  75  77 SW8       30.04R
LAFAYETTE      CLEAR     85  75  72 SW8       30.04R
PATTERSON      PTCLDY    81  77  89 SW5       30.09S
SALT POINT       N/A     88  78  72 VRB6      30.05R HX 101
NEW IBERIA     CLEAR     83  76  79 SW6       30.05R
CHENAULT AIRPK NOT AVBL

$$

LAZ027-028-280300-
CENTRAL LOUISIANA

CITY           SKY/WX    TMP DP  RH WIND       PRES   REMARKS
FORT POLK      CLEAR     84  76  76 S3        30.02S
ALEXANDRIA INT CLEAR     82  76  81 CALM      30.00R
ALEXANDRIA     CLEAR     82  77  84 CALM      30.02R

$$

LAZ001-002-280300-
NORTHWEST LOUISIANA

CITY           SKY/WX    TMP DP  RH WIND       PRES   REMARKS
SHREVEPORT     PTCLDY    86  73  65 SW5       29.99S
BARKSDALE AFB  CLEAR     88  72  58 SW5       30.00R
DTN SHREVEPORT CLEAR     88  71  57 SW6       29.99S

$$

LAZ014-016-280300-
NORTHEAST LOUISIANA

CITY           SKY/WX    TMP DP  RH WIND       PRES   REMARKS
MONROE         CLEAR     82  76  81 CALM      29.99S
TALLULAH       CLEAR     80  76  87 S5        29.99S

$$




USA.gov is the U.S. government's official web portal to all federal, state and local government web resources and services.